Location: Newark
(21.1200°N, 73.4000°E)
Time: 10:33:52
(UTC+00:00)

Vanguard 1 Rocket - Pass Details

Date: 23 January 2021
Orbit: 654 x 4223 km, 34.3° (Epoch: 07 March)

Event Time Altitude Azimuth Distance (km) Brightness Sun altitude
Rises 16:18:49 0° 259° (W) 4,914 11.8 -48.0°
Reaches altitude 10° 16:23:53 10° 236° (WSW) 4,570 11.4 -49.2°
Maximum altitude 16:30:24 15° 207° (SSW) 4,921 11.2 -50.7°
Drops below altitude 10° 16:38:57 10° 178° (S) 6,187 11.6 -52.6°
Sets 16:48:52 0° 159° (SSE) 7,941 12.1 -55.0°
